User: anonymous   Login
Location: Unspecified
(0.0000°N, 0.0000°E)
Time: 15:28:33
(UTC+00:00)
Language:

DANDE - Orbit

View from above orbital plane
View from above orbital plane
View from above satellite
View from above satellite

Ground track
Ground track

The orbit data is extracted from the following two-line orbital elements,

1 39267U 13055C   18345.56897024  .00003094  00000-0  89618-4 0  9995
2 39267  81.0094 191.1586 0701546 149.3336 215.0886 14.20026310267930
Epoch (UTC): 11 December 2018 13:39:19
Eccentricity: 0.0701546
inclination: 81.0094°
perigee height: 320 km
apogee height: 1330 km
right ascension of ascending node: 191.1586°
argument of perigee: 149.3336°
revolutions per day: 14.20026310
mean anomaly at epoch: 215.0886°
orbit number at epoch: 26793

The dashed part of the orbit path shows where the satellite is in the earth's shadow,  

DLR